Tracking 19827 objects as of 22-Aug-2019
HD Live streaming from Space Station
objects crossing your sky now

FENGYUN 1C DEB

Track FENGYUN 1C DEB now!
10-day predictions


NORAD ID: 31715
Int'l Code: 1999-025CDN
Perigee: 616.6 km
Apogee: 963.8 km
Inclination: 99.3 °
Period: 100.5 minutes
Semi major axis: 7161 km
RCS: 0.0108 m2 (small)
Launch date: May 10, 1999
Source: People's Republic of China (PRC)
Launch site: Taiyaun Space Center, China (TSC)

Note: This is SATELLITE DEBRIS
aabbcc
Your satellite tracking list
Your tracking list is empty




NASA's NSSDC Master Catalog

Two Line Element Set (TLE):
1 31715U 99025CDN 19228.12649777  .00000221  00000-0  74694-4 0  9996
2 31715  99.2878 200.4543 0242417  21.7691 339.3585 14.32595883639042
Source of the keplerian elements: AFSPC